Location: Poughquag
(41.6090°N, 73.6820°W)
Time: 18:33:27
(UTC-05:00)

A-11 Canister half - Pass Details

Date: 15 December 2023
Orbit: 1526 x 1682 km, 47.3° (Epoch: 23 February)

Event Time Altitude Azimuth Distance (km) Brightness Sun altitude
Rises 21:37:50 0° 296° (WNW) 4,937 12.2 -57.0°
Reaches altitude 10° 21:41:00 10° 295° (WNW) 3,943 11.5 -57.5°
Enters shadow 21:43:58 23° 294° (WNW) 3,052 10.7 -58.0°
